Time,TemperatureF,DewpointF,PressureIn,WindDirection,WindDirectionDegrees,WindSpeedMPH,WindSpeedGustMPH,Humidity,HourlyPrecipIn,Conditions,Clouds,dailyrainin,SoftwareType,DateUTC
2013-03-19 00:00:00,29.7,27.1,30.22,SE,131,2.0,2.0,90,0.00,,,0.01,Wunderground v.1.15,2013-03-19 04:00:00,
2013-03-19 00:05:00,29.6,27.0,30.21,SE,135,3.0,3.0,90,0.24,,,0.01,Wunderground v.1.15,2013-03-19 04:05:00,
2013-03-19 00:10:00,29.7,27.4,30.21,SE,133,2.0,2.0,91,0.15,,,0.02,Wunderground v.1.15,2013-03-19 04:10:00,
2013-03-19 00:15:00,29.7,27.4,30.20,ESE,111,2.0,3.0,91,0.08,,,0.03,Wunderground v.1.15,2013-03-19 04:15:00,
2013-03-19 00:20:00,29.6,27.3,30.20,SSE,156,3.0,4.0,91,0.08,,,0.03,Wunderground v.1.15,2013-03-19 04:20:00,
2013-03-19 00:25:00,29.5,27.2,30.20,ESE,117,3.0,4.0,91,0.06,,,0.04,Wunderground v.1.15,2013-03-19 04:25:00,
2013-03-19 00:30:00,29.6,27.3,30.19,ESE,122,2.0,3.0,91,0.06,,,0.04,Wunderground v.1.15,2013-03-19 04:30:00,
2013-03-19 00:35:00,29.6,27.3,30.19,SE,132,2.0,3.0,91,0.06,,,0.05,Wunderground v.1.15,2013-03-19 04:35:00,
2013-03-19 00:50:00,29.8,27.8,30.18,ESE,117,2.0,3.0,92,0.07,,,0.06,Wunderground v.1.15,2013-03-19 04:50:00,
2013-03-19 01:00:00,29.9,27.9,30.17,ESE,104,3.0,3.0,92,0.04,,,0.07,Wunderground v.1.15,2013-03-19 05:00:00,
2013-03-19 01:10:00,30.1,28.1,30.16,ESE,111,3.0,4.0,92,0.05,,,0.08,Wunderground v.1.15,2013-03-19 05:10:00,
2013-03-19 01:20:00,30.2,28.4,30.15,SE,124,3.0,3.0,93,0.05,,,0.09,Wunderground v.1.15,2013-03-19 05:20:00,
2013-03-19 01:25:00,30.3,28.5,30.14,ESE,120,2.0,4.0,93,0.05,,,0.09,Wunderground v.1.15,2013-03-19 05:25:00,
2013-03-19 01:35:00,30.5,28.7,30.13,ESE,123,3.0,7.0,93,0.05,,,0.10,Wunderground v.1.15,2013-03-19 05:35:00,
2013-03-19 01:40:00,30.5,28.7,30.13,ESE,123,3.0,3.0,93,0.05,,,0.10,Wunderground v.1.15,2013-03-19 05:40:00,
2013-03-19 01:55:00,30.6,28.8,30.12,East,99,2.0,2.0,93,0.04,,,0.11,Wunderground v.1.15,2013-03-19 05:55:00,
2013-03-19 02:05:00,30.8,29.0,30.11,ESE,111,2.0,2.0,93,0.12,,,0.13,Wunderground v.1.15,2013-03-19 06:05:00,
2013-03-19 02:10:00,31.0,29.2,30.11,ESE,110,2.0,3.0,93,0.10,,,0.14,Wunderground v.1.15,2013-03-19 06:10:00,
2013-03-19 02:20:00,31.2,29.4,30.10,ESE,119,2.0,2.0,93,0.05,,,0.14,Wunderground v.1.15,2013-03-19 06:20:00,
2013-03-19 02:25:00,31.2,29.4,30.10,South,184,2.0,2.0,93,0.05,,,0.15,Wunderground v.1.15,2013-03-19 06:25:00,
2013-03-19 02:35:00,31.0,29.2,30.09,ESE,119,2.0,3.0,93,0.04,,,0.16,Wunderground v.1.15,2013-03-19 06:35:00,
2013-03-19 02:40:00,31.0,29.2,30.09,SE,132,3.0,3.0,93,0.04,,,0.16,Wunderground v.1.15,2013-03-19 06:40:00,
2013-03-19 02:55:00,31.0,29.2,30.08,ESE,122,3.0,3.0,93,0.05,,,0.17,Wunderground v.1.15,2013-03-19 06:55:00,
2013-03-19 03:00:00,31.0,29.2,30.08,SE,146,3.0,4.0,93,0.05,,,0.18,Wunderground v.1.15,2013-03-19 07:00:00,
2013-03-19 03:05:00,31.0,29.2,30.08,SSE,157,3.0,4.0,93,0.05,,,0.18,Wunderground v.1.15,2013-03-19 07:05:00,
2013-03-19 03:15:00,30.9,29.1,30.07,SE,124,4.0,5.0,93,0.08,,,0.19,Wunderground v.1.15,2013-03-19 07:15:00,
2013-03-19 03:25:00,30.9,29.1,30.06,SE,127,5.0,5.0,93,0.06,,,0.20,Wunderground v.1.15,2013-03-19 07:25:00,
2013-03-19 03:30:00,31.0,29.2,30.06,ESE,110,4.0,4.0,93,0.05,,,0.21,Wunderground v.1.15,2013-03-19 07:30:00,
2013-03-19 03:40:00,31.1,29.3,30.07,ESE,117,3.0,3.0,93,0.06,,,0.22,Wunderground v.1.15,2013-03-19 07:40:00,
2013-03-19 03:45:00,31.2,29.4,30.07,ESE,109,2.0,3.0,93,0.06,,,0.22,Wunderground v.1.15,2013-03-19 07:45:00,
2013-03-19 03:55:00,31.3,29.5,30.06,SE,143,3.0,5.0,93,0.07,,,0.24,Wunderground v.1.15,2013-03-19 07:55:00,
2013-03-19 04:00:00,31.4,29.6,30.06,ESE,103,3.0,5.0,93,0.07,,,0.24,Wunderground v.1.15,2013-03-19 08:00:00,
2013-03-19 04:05:00,31.5,29.7,30.06,SE,130,4.0,5.0,93,0.05,,,0.24,Wunderground v.1.15,2013-03-19 08:05:00,
2013-03-19 04:15:00,31.7,29.9,30.05,ESE,121,4.0,4.0,93,0.04,,,0.25,Wunderground v.1.15,2013-03-19 08:15:00,
2013-03-19 04:20:00,31.9,30.4,30.05,ESE,107,4.0,7.0,94,0.04,,,0.25,Wunderground v.1.15,2013-03-19 08:20:00,
2013-03-19 04:30:00,32.0,30.5,30.03,ESE,103,5.0,5.0,94,0.05,,,0.26,Wunderground v.1.15,2013-03-19 08:30:00,
2013-03-19 04:40:00,32.2,30.7,30.03,East,91,4.0,5.0,94,0.12,,,0.29,Wunderground v.1.15,2013-03-19 08:40:00,
2013-03-19 04:45:00,32.3,30.8,30.03,ESE,103,4.0,8.0,94,0.11,,,0.29,Wunderground v.1.15,2013-03-19 08:45:00,
2013-03-19 04:55:00,32.4,30.9,30.02,ESE,102,5.0,7.0,94,0.06,,,0.30,Wunderground v.1.15,2013-03-19 08:55:00,
2013-03-19 05:05:00,32.5,31.0,30.02,ESE,117,5.0,5.0,94,0.07,,,0.32,Wunderground v.1.15,2013-03-19 09:05:00,
2013-03-19 05:15:00,32.5,31.0,30.03,SE,143,5.0,8.0,94,0.08,,,0.33,Wunderground v.1.15,2013-03-19 09:15:00,
2013-03-19 05:25:00,32.5,31.0,30.03,ESE,103,5.0,5.0,94,0.06,,,0.34,Wunderground v.1.15,2013-03-19 09:25:00,
2013-03-19 05:30:00,32.5,31.0,30.03,SE,132,5.0,5.0,94,0.06,,,0.34,Wunderground v.1.15,2013-03-19 09:30:00,
2013-03-19 05:40:00,32.5,31.0,30.02,East,88,4.0,5.0,94,0.05,,,0.35,Wunderground v.1.15,2013-03-19 09:40:00,
2013-03-19 05:45:00,32.5,31.0,30.02,SSE,157,4.0,7.0,94,0.05,,,0.35,Wunderground v.1.15,2013-03-19 09:45:00,
2013-03-19 05:55:00,32.4,30.9,30.02,East,81,5.0,6.0,94,0.04,,,0.36,Wunderground v.1.15,2013-03-19 09:55:00,
2013-03-19 06:00:00,32.4,30.9,30.02,East,94,5.0,5.0,94,0.04,,,0.37,Wunderground v.1.15,2013-03-19 10:00:00,
2013-03-19 06:05:00,32.4,30.9,30.02,ESE,113,5.0,5.0,94,0.23,,,0.38,Wunderground v.1.15,2013-03-19 10:05:00,
2013-03-19 06:15:00,32.6,31.1,30.01,East,96,5.0,8.0,94,0.14,,,0.40,Wunderground v.1.15,2013-03-19 10:15:00,
2013-03-19 06:25:00,32.5,31.0,30.00,SE,131,6.0,13.0,94,0.09,,,0.42,Wunderground v.1.15,2013-03-19 10:25:00,
2013-03-19 06:30:00,32.5,31.0,30.00,SE,136,6.0,6.0,94,0.09,,,0.42,Wunderground v.1.15,2013-03-19 10:30:00,
2013-03-19 06:40:00,32.6,31.1,29.99,NNE,28,5.0,5.0,94,0.04,,,0.43,Wunderground v.1.15,2013-03-19 10:40:00,
2013-03-19 06:50:00,32.7,31.2,29.99,ESE,116,6.0,6.0,94,0.04,,,0.43,Wunderground v.1.15,2013-03-19 10:50:00,
2013-03-19 06:55:00,32.8,31.3,29.99,ESE,117,6.0,7.0,94,0.04,,,0.44,Wunderground v.1.15,2013-03-19 10:55:00,
2013-03-19 07:05:00,32.9,31.4,29.98,ESE,104,5.0,7.0,94,0.04,,,0.44,Wunderground v.1.15,2013-03-19 11:05:00,
2013-03-19 07:15:00,33.0,31.5,29.98,ESE,106,6.0,7.0,94,0.04,,,0.45,Wunderground v.1.15,2013-03-19 11:15:00,
2013-03-19 07:25:00,33.1,31.6,29.98,East,101,6.0,6.0,94,0.07,,,0.46,Wunderground v.1.15,2013-03-19 11:25:00,
2013-03-19 07:30:00,33.2,31.7,29.98,NE,39,7.0,7.0,94,0.04,,,0.46,Wunderground v.1.15,2013-03-19 11:30:00,
2013-03-19 07:35:00,33.2,31.7,29.97,ESE,107,7.0,7.0,94,0.00,,,0.46,Wunderground v.1.15,2013-03-19 11:35:00,
2013-03-19 07:45:00,33.2,31.7,29.97,East,101,5.0,6.0,94,0.00,,,0.47,Wunderground v.1.15,2013-03-19 11:45:00,
2013-03-19 07:55:00,33.3,31.8,29.96,East,90,7.0,7.0,94,0.00,,,0.47,Wunderground v.1.15,2013-03-19 11:55:00,
2013-03-19 08:00:00,33.3,31.8,29.95,ESE,106,8.0,8.0,94,0.00,,,0.47,Wunderground v.1.15,2013-03-19 12:00:00,
2013-03-19 08:10:00,33.4,31.9,29.95,SE,132,7.0,7.0,94,0.00,,,0.47,Wunderground v.1.15,2013-03-19 12:10:00,
2013-03-19 08:20:00,33.5,32.0,29.95,ENE,74,5.0,7.0,94,0.00,,,0.47,Wunderground v.1.15,2013-03-19 12:20:00,
2013-03-19 08:25:00,33.5,32.0,29.94,SSE,158,5.0,7.0,94,0.00,,,0.47,Wunderground v.1.15,2013-03-19 12:25:00,
2013-03-19 08:35:00,33.4,31.6,29.93,SE,142,5.0,9.0,93,0.00,,,0.47,Wunderground v.1.15,2013-03-19 12:35:00,
2013-03-19 08:40:00,33.6,32.1,29.93,ENE,71,5.0,8.0,94,0.00,,,0.48,Wunderground v.1.15,2013-03-19 12:40:00,
2013-03-19 08:50:00,33.7,32.2,29.93,East,100,5.0,6.0,94,0.00,,,0.48,Wunderground v.1.15,2013-03-19 12:50:00,
2013-03-19 08:55:00,33.8,32.3,29.93,ENE,78,4.0,6.0,94,0.00,,,0.48,Wunderground v.1.15,2013-03-19 12:55:00,
2013-03-19 09:05:00,33.8,32.3,29.92,South,181,5.0,7.0,94,0.00,,,0.48,Wunderground v.1.15,2013-03-19 13:05:00,
2013-03-19 09:10:00,33.8,32.3,29.92,East,97,6.0,9.0,94,0.00,,,0.48,Wunderground v.1.15,2013-03-19 13:10:00,
2013-03-19 09:15:00,33.9,32.4,29.91,ENE,70,7.0,9.0,94,0.00,,,0.48,Wunderground v.1.15,2013-03-19 13:15:00,
2013-03-19 09:25:00,33.9,32.4,29.90,East,83,8.0,21.0,94,0.00,,,0.49,Wunderground v.1.15,2013-03-19 13:25:00,
2013-03-19 09:30:00,34.0,32.5,29.90,ESE,120,8.0,8.0,94,0.08,,,0.50,Wunderground v.1.15,2013-03-19 13:30:00,
2013-03-19 09:40:00,34.1,32.6,29.90,ESE,117,8.0,12.0,94,0.05,,,0.51,Wunderground v.1.15,2013-03-19 13:40:00,
2013-03-19 09:50:00,34.3,32.8,29.89,ESE,120,7.0,9.0,94,0.05,,,0.51,Wunderground v.1.15,2013-03-19 13:50:00,
2013-03-19 10:00:00,34.3,32.8,29.88,SE,134,8.0,8.0,94,0.04,,,0.52,Wunderground v.1.15,2013-03-19 14:00:00,
2013-03-19 10:05:00,34.3,32.8,29.88,East,86,7.0,9.0,94,0.04,,,0.52,Wunderground v.1.15,2013-03-19 14:05:00,
2013-03-19 10:15:00,34.4,32.9,29.87,East,90,8.0,13.0,94,0.00,,,0.53,Wunderground v.1.15,2013-03-19 14:15:00,
2013-03-19 10:25:00,34.5,33.0,29.86,ESE,119,7.0,8.0,94,0.05,,,0.54,Wunderground v.1.15,2013-03-19 14:25:00,
2013-03-19 10:30:00,34.6,33.1,29.86,East,98,7.0,7.0,94,0.05,,,0.54,Wunderground v.1.15,2013-03-19 14:30:00,
2013-03-19 10:40:00,34.7,33.2,29.86,ESE,118,7.0,15.0,94,0.00,,,0.54,Wunderground v.1.15,2013-03-19 14:40:00,
2013-03-19 10:45:00,34.8,33.0,29.86,ESE,117,8.0,15.0,93,0.00,,,0.55,Wunderground v.1.15,2013-03-19 14:45:00,
2013-03-19 10:55:00,34.8,33.0,29.86,East,101,8.0,9.0,93,0.00,,,0.55,Wunderground v.1.15,2013-03-19 14:55:00,
2013-03-19 11:00:00,34.8,33.0,29.85,ESE,119,8.0,9.0,93,0.00,,,0.55,Wunderground v.1.15,2013-03-19 15:00:00,
2013-03-19 11:05:00,35.0,33.2,29.84,SE,140,8.0,9.0,93,0.00,,,0.55,Wunderground v.1.15,2013-03-19 15:05:00,
2013-03-19 11:15:00,34.9,33.1,29.84,ESE,111,8.0,13.0,93,0.00,,,0.55,Wunderground v.1.15,2013-03-19 15:15:00,
2013-03-19 11:20:00,34.8,33.0,29.83,East,94,7.0,9.0,93,0.00,,,0.55,Wunderground v.1.15,2013-03-19 15:20:00,
2013-03-19 11:25:00,34.9,33.3,29.83,SE,130,7.0,10.0,94,0.00,,,0.55,Wunderground v.1.15,2013-03-19 15:25:00,
2013-03-19 11:35:00,35.1,33.3,29.83,ESE,107,8.0,8.0,93,0.00,,,0.55,Wunderground v.1.15,2013-03-19 15:35:00,
2013-03-19 11:45:00,35.3,33.5,29.81,East,92,8.0,11.0,93,0.00,,,0.55,Wunderground v.1.15,2013-03-19 15:45:00,
2013-03-19 11:55:00,35.3,33.5,29.80,NE,36,8.0,8.0,93,0.00,,,0.55,Wunderground v.1.15,2013-03-19 15:55:00,
2013-03-19 12:00:00,35.4,33.8,29.80,ESE,119,8.0,8.0,94,0.00,,,0.55,Wunderground v.1.15,2013-03-19 16:00:00,
2013-03-19 12:10:00,35.4,33.6,29.79,ESE,117,8.0,8.0,93,0.00,,,0.55,Wunderground v.1.15,2013-03-19 16:10:00,
2013-03-19 12:15:00,35.4,33.6,29.78,ENE,62,8.0,8.0,93,0.00,,,0.55,Wunderground v.1.15,2013-03-19 16:15:00,
2013-03-19 12:20:00,35.4,33.6,29.78,SSE,149,9.0,11.0,93,0.00,,,0.55,Wunderground v.1.15,2013-03-19 16:20:00,
2013-03-19 12:30:00,35.5,33.7,29.77,SE,130,9.0,11.0,93,0.00,,,0.55,Wunderground v.1.15,2013-03-19 16:30:00,
2013-03-19 12:35:00,35.6,33.8,29.77,ENE,74,9.0,11.0,93,0.00,,,0.55,Wunderground v.1.15,2013-03-19 16:35:00,
2013-03-19 12:45:00,35.7,33.9,29.76,ESE,115,9.0,11.0,93,0.00,,,0.55,Wunderground v.1.15,2013-03-19 16:45:00,
2013-03-19 12:55:00,35.6,33.8,29.75,East,98,10.0,14.0,93,0.00,,,0.55,Wunderground v.1.15,2013-03-19 16:55:00,
2013-03-19 13:05:00,35.7,33.9,29.75,East,96,10.0,10.0,93,0.00,,,0.55,Wunderground v.1.15,2013-03-19 17:05:00,
2013-03-19 13:10:00,35.7,33.9,29.74,ENE,65,10.0,12.0,93,0.00,,,0.55,Wunderground v.1.15,2013-03-19 17:10:00,
2013-03-19 13:20:00,35.8,34.0,29.73,ESE,115,9.0,9.0,93,0.00,,,0.56,Wunderground v.1.15,2013-03-19 17:20:00,
2013-03-19 13:25:00,35.9,34.3,29.72,ENE,74,9.0,9.0,94,0.00,,,0.56,Wunderground v.1.15,2013-03-19 17:25:00,
2013-03-19 13:35:00,36.0,34.4,29.71,ESE,115,9.0,12.0,94,0.00,,,0.56,Wunderground v.1.15,2013-03-19 17:35:00,
2013-03-19 13:40:00,36.0,34.4,29.71,ESE,105,9.0,9.0,94,0.00,,,0.56,Wunderground v.1.15,2013-03-19 17:40:00,
2013-03-19 13:50:00,36.1,34.5,29.69,ESE,121,9.0,11.0,94,0.00,,,0.57,Wunderground v.1.15,2013-03-19 17:50:00,
2013-03-19 13:55:00,36.2,34.6,29.68,East,88,9.0,11.0,94,0.00,,,0.57,Wunderground v.1.15,2013-03-19 17:55:00,
2013-03-19 14:00:00,36.2,34.6,29.68,NNE,26,10.0,10.0,94,0.00,,,0.57,Wunderground v.1.15,2013-03-19 18:00:00,
2013-03-19 14:05:00,36.2,34.6,29.68,SE,129,9.0,14.0,94,0.00,,,0.57,Wunderground v.1.15,2013-03-19 18:05:00,
2013-03-19 14:15:00,36.1,34.5,29.68,SSE,160,7.0,8.0,94,0.00,,,0.58,Wunderground v.1.15,2013-03-19 18:15:00,
2013-03-19 14:20:00,36.0,34.4,29.67,East,96,7.0,7.0,94,0.00,,,0.58,Wunderground v.1.15,2013-03-19 18:20:00,
2013-03-19 14:30:00,36.1,34.5,29.67,NE,39,6.0,8.0,94,0.00,,,0.59,Wunderground v.1.15,2013-03-19 18:30:00,
2013-03-19 14:35:00,36.1,34.5,29.67,ENE,71,7.0,8.0,94,0.12,,,0.60,Wunderground v.1.15,2013-03-19 18:35:00,
2013-03-19 14:45:00,36.2,34.6,29.68,ENE,67,6.0,9.0,94,0.10,,,0.61,Wunderground v.1.15,2013-03-19 18:45:00,
2013-03-19 14:55:00,36.2,34.6,29.74,North,350,3.0,5.0,94,0.09,,,0.63,Wunderground v.1.15,2013-03-19 18:55:00,
2013-03-19 15:05:00,35.8,34.2,29.72,ENE,60,2.0,3.0,94,0.14,,,0.66,Wunderground v.1.15,2013-03-19 19:05:00,
2013-03-19 15:10:00,35.5,33.9,29.70,NE,34,3.0,3.0,94,0.16,,,0.67,Wunderground v.1.15,2013-03-19 19:10:00,
2013-03-19 15:20:00,35.0,33.4,29.70,NE,40,3.0,3.0,94,0.18,,,0.70,Wunderground v.1.15,2013-03-19 19:20:00,
2013-03-19 15:30:00,34.2,32.7,29.69,NE,34,2.0,3.0,94,0.13,,,0.73,Wunderground v.1.15,2013-03-19 19:30:00,
2013-03-19 15:40:00,34.0,32.5,29.69,North,360,2.0,2.0,94,0.10,,,0.75,Wunderground v.1.15,2013-03-19 19:40:00,
2013-03-19 15:50:00,34.1,32.6,29.71,NNW,344,2.0,3.0,94,0.07,,,0.76,Wunderground v.1.15,2013-03-19 19:50:00,
2013-03-19 15:55:00,34.1,32.6,29.70,NNE,19,3.0,4.0,94,0.07,,,0.76,Wunderground v.1.15,2013-03-19 19:55:00,
2013-03-19 16:05:00,34.1,32.6,29.62,SE,128,6.0,10.0,94,0.12,,,0.77,Wunderground v.1.15,2013-03-19 20:05:00,
2013-03-19 16:10:00,34.0,32.5,29.61,East,94,8.0,11.0,94,0.12,,,0.78,Wunderground v.1.15,2013-03-19 20:10:00,
2013-03-19 16:20:00,34.3,32.8,29.62,North,11,8.0,8.0,94,0.10,,,0.80,Wunderground v.1.15,2013-03-19 20:20:00,
2013-03-19 16:30:00,34.5,33.0,29.61,ENE,65,6.0,6.0,94,0.05,,,0.81,Wunderground v.1.15,2013-03-19 20:30:00,
2013-03-19 16:35:00,34.6,33.1,29.62,SE,137,6.0,6.0,94,0.05,,,0.81,Wunderground v.1.15,2013-03-19 20:35:00,
2013-03-19 16:45:00,34.9,33.3,29.61,East,79,6.0,6.0,94,0.04,,,0.81,Wunderground v.1.15,2013-03-19 20:45:00,
2013-03-19 16:50:00,35.0,33.4,29.60,NNE,14,6.0,6.0,94,0.00,,,0.81,Wunderground v.1.15,2013-03-19 20:50:00,
2013-03-19 17:00:00,35.2,33.6,29.59,East,93,9.0,9.0,94,0.00,,,0.81,Wunderground v.1.15,2013-03-19 21:00:00,
2013-03-19 17:05:00,35.3,33.5,29.59,ESE,117,8.0,9.0,93,0.00,,,0.81,Wunderground v.1.15,2013-03-19 21:05:00,
2013-03-19 17:15:00,35.3,33.5,29.59,East,92,6.0,9.0,93,0.00,,,0.81,Wunderground v.1.15,2013-03-19 21:15:00,
2013-03-19 17:25:00,35.2,33.4,29.59,ENE,71,6.0,13.0,93,0.00,,,0.81,Wunderground v.1.15,2013-03-19 21:25:00,
2013-03-19 17:30:00,35.2,33.4,29.59,SE,131,5.0,6.0,93,0.00,,,0.81,Wunderground v.1.15,2013-03-19 21:30:00,
2013-03-19 17:40:00,35.1,33.0,29.60,ESE,109,6.0,7.0,92,0.00,,,0.81,Wunderground v.1.15,2013-03-19 21:40:00,
2013-03-19 17:50:00,35.0,32.9,29.59,SE,127,5.0,5.0,92,0.00,,,0.81,Wunderground v.1.15,2013-03-19 21:50:00,
2013-03-19 17:55:00,35.0,32.9,29.60,ENE,78,5.0,5.0,92,0.00,,,0.81,Wunderground v.1.15,2013-03-19 21:55:00,
2013-03-19 18:05:00,35.0,32.9,29.59,NNE,12,5.0,5.0,92,0.00,,,0.81,Wunderground v.1.15,2013-03-19 22:05:00,
2013-03-19 18:15:00,35.0,32.9,29.60,East,85,4.0,5.0,92,0.00,,,0.81,Wunderground v.1.15,2013-03-19 22:15:00,
2013-03-19 18:20:00,35.0,32.9,29.60,SE,140,4.0,4.0,92,0.00,,,0.81,Wunderground v.1.15,2013-03-19 22:20:00,
2013-03-19 18:30:00,34.8,32.7,29.60,SE,141,4.0,4.0,92,0.00,,,0.81,Wunderground v.1.15,2013-03-19 22:30:00,
2013-03-19 18:35:00,34.7,32.6,29.60,ENE,65,4.0,4.0,92,0.00,,,0.81,Wunderground v.1.15,2013-03-19 22:35:00,
2013-03-19 18:45:00,34.5,32.4,29.60,SE,125,3.0,5.0,92,0.00,,,0.81,Wunderground v.1.15,2013-03-19 22:45:00,
2013-03-19 18:55:00,34.4,32.6,29.60,East,97,3.0,3.0,93,0.00,,,0.81,Wunderground v.1.15,2013-03-19 22:55:00,
2013-03-19 19:00:00,34.4,32.6,29.60,NE,36,2.0,3.0,93,0.00,,,0.81,Wunderground v.1.15,2013-03-19 23:00:00,
2013-03-19 19:05:00,34.4,32.6,29.60,ESE,113,3.0,3.0,93,0.00,,,0.81,Wunderground v.1.15,2013-03-19 23:05:00,
2013-03-19 19:15:00,34.4,32.6,29.60,NNE,22,2.0,5.0,93,0.00,,,0.81,Wunderground v.1.15,2013-03-19 23:15:00,
2013-03-19 19:25:00,34.3,32.5,29.60,ENE,69,3.0,4.0,93,0.00,,,0.81,Wunderground v.1.15,2013-03-19 23:25:00,
2013-03-19 19:35:00,34.3,32.5,29.60,NW,324,2.0,4.0,93,0.00,,,0.81,Wunderground v.1.15,2013-03-19 23:35:00,
2013-03-19 19:45:00,34.2,32.4,29.60,NE,54,2.0,4.0,93,0.00,,,0.81,Wunderground v.1.15,2013-03-19 23:45:00,
2013-03-19 19:55:00,34.2,32.4,29.60,ENE,71,2.0,3.0,93,0.00,,,0.81,Wunderground v.1.15,2013-03-19 23:55:00,
2013-03-19 20:05:00,34.1,32.3,29.61,North,355,2.0,3.0,93,0.00,,,0.81,Wunderground v.1.15,2013-03-20 00:05:00,
2013-03-19 20:10:00,34.1,32.3,29.60,NNW,340,2.0,2.0,93,0.00,,,0.82,Wunderground v.1.15,2013-03-20 00:10:00,
2013-03-19 20:20:00,33.9,32.1,29.60,ENE,71,1.0,5.0,93,0.00,,,0.82,Wunderground v.1.15,2013-03-20 00:20:00,
2013-03-19 20:30:00,33.9,32.1,29.60,North,10,3.0,3.0,93,0.00,,,0.82,Wunderground v.1.15,2013-03-20 00:30:00,
2013-03-19 20:40:00,33.8,32.0,29.61,NNW,347,3.0,5.0,93,0.00,,,0.82,Wunderground v.1.15,2013-03-20 00:40:00,
2013-03-19 20:50:00,33.7,31.9,29.62,NW,307,2.0,3.0,93,0.00,,,0.82,Wunderground v.1.15,2013-03-20 00:50:00,
2013-03-19 21:00:00,33.7,32.2,29.64,WSW,253,3.0,3.0,94,0.00,,,0.83,Wunderground v.1.15,2013-03-20 01:00:00,
2013-03-19 21:05:00,33.7,32.2,29.64,West,267,3.0,6.0,94,0.00,,,0.83,Wunderground v.1.15,2013-03-20 01:05:00,
2013-03-19 21:15:00,33.5,31.7,29.65,North,5,3.0,3.0,93,0.00,,,0.83,Wunderground v.1.15,2013-03-20 01:15:00,
2013-03-19 21:20:00,33.5,31.7,29.65,North,355,2.0,2.0,93,0.00,,,0.84,Wunderground v.1.15,2013-03-20 01:20:00,
2013-03-19 21:25:00,33.4,31.6,29.64,NW,322,2.0,2.0,93,0.00,,,0.84,Wunderground v.1.15,2013-03-20 01:25:00,
2013-03-19 21:35:00,33.3,31.8,29.64,NNW,331,2.0,2.0,94,0.00,,,0.84,Wunderground v.1.15,2013-03-20 01:35:00,
2013-03-19 21:50:00,33.1,31.6,29.65,West,271,2.0,3.0,94,0.00,,,0.84,Wunderground v.1.15,2013-03-20 01:50:00,
2013-03-19 22:00:00,32.6,30.8,29.67,NE,43,4.0,6.0,93,0.00,,,0.84,Wunderground v.1.15,2013-03-20 02:00:00,
2013-03-19 22:05:00,32.4,30.6,29.67,North,355,4.0,6.0,93,0.00,,,0.85,Wunderground v.1.15,2013-03-20 02:05:00,
2013-03-19 22:10:00,32.2,30.4,29.67,NW,319,4.0,4.0,93,0.00,,,0.85,Wunderground v.1.15,2013-03-20 02:10:00,
2013-03-19 22:20:00,31.9,30.1,29.67,North,355,3.0,3.0,93,0.00,,,0.85,Wunderground v.1.15,2013-03-20 02:20:00,
2013-03-19 22:30:00,31.4,29.6,29.66,North,355,5.0,5.0,93,0.00,,,0.85,Wunderground v.1.15,2013-03-20 02:30:00,
2013-03-19 22:35:00,31.2,29.4,29.67,North,5,4.0,5.0,93,0.00,,,0.85,Wunderground v.1.15,2013-03-20 02:35:00,
2013-03-19 22:45:00,31.0,28.9,29.67,NNW,346,3.0,3.0,92,0.00,,,0.85,Wunderground v.1.15,2013-03-20 02:45:00,
2013-03-19 22:50:00,30.8,28.8,29.67,North,349,3.0,3.0,92,0.00,,,0.85,Wunderground v.1.15,2013-03-20 02:50:00,
2013-03-19 22:55:00,30.7,28.7,29.66,NNW,335,4.0,4.0,92,0.00,,,0.85,Wunderground v.1.15,2013-03-20 02:55:00,
2013-03-19 23:05:00,30.5,28.5,29.67,NNW,344,3.0,4.0,92,0.00,,,0.85,Wunderground v.1.15,2013-03-20 03:05:00,
2013-03-19 23:10:00,30.3,28.0,29.67,NNW,342,4.0,5.0,91,0.00,,,0.85,Wunderground v.1.15,2013-03-20 03:10:00,
2013-03-19 23:20:00,30.0,27.4,29.67,NW,317,4.0,4.0,90,0.00,,,0.85,Wunderground v.1.15,2013-03-20 03:20:00,
2013-03-19 23:30:00,29.8,27.2,29.67,NW,325,4.0,5.0,90,0.00,,,0.85,Wunderground v.1.15,2013-03-20 03:30:00,
2013-03-19 23:35:00,29.7,27.1,29.66,NNW,335,3.0,5.0,90,0.00,,,0.85,Wunderground v.1.15,2013-03-20 03:35:00,
2013-03-19 23:45:00,29.5,26.7,29.67,NW,325,3.0,8.0,89,0.00,,,0.85,Wunderground v.1.15,2013-03-20 03:45:00,
2013-03-19 23:50:00,29.3,26.5,29.67,NW,306,4.0,4.0,89,0.00,,,0.85,Wunderground v.1.15,2013-03-20 03:50:00,